Overview Statistics Trail Chart Weather Telemetry Raw packets
 

This is the latest recevied weather packets stored in our database for station/object 4S6DRJ-13. If no packets are shown the sender has not sent any weather packets the latest 10 day(s).

<< 200 201 202 203 204 205 206 >>
Time Temp. Humidity Pressure Rain* Wind** Luminosity Snow
1788168596 31.67° C 69% 1006.8 hPa 0 mm 0.89 m/s, 302° 792 W/m² -
1788168535 31.67° C 68% 1007.1 hPa 0 mm 1.34 m/s, 228° 584 W/m² -
1788168474 31.67° C 69% 1006.8 hPa 0 mm 2.68 m/s, 348° 860 W/m² -
1788168413 31.67° C 70% 1007.2 hPa 0 mm 1.34 m/s, 199° 905 W/m² -
1788168352 31.67° C 70% 1006.9 hPa 0 mm 1.34 m/s, 238° 268 W/m² -
1788168291 31.67° C 70% 1007 hPa 0 mm 2.68 m/s, 81° 908 W/m² -
1788168230 31.67° C 69% 1006.9 hPa 0 mm 2.24 m/s, 224° 927 W/m² -
1788168169 31.11° C 70% 1007 hPa 0 mm 1.79 m/s, 215° 881 W/m² -
1788168108 31.11° C 70% 1006.9 hPa 0 mm 1.34 m/s, 218° 869 W/m² -
1788168047 31.11° C 69% 1007 hPa 0 mm 2.68 m/s, 277° 861 W/m² -
1788167986 31.11° C 68% 1006.9 hPa 0 mm 0.89 m/s, 210° 882 W/m² -
1788167925 31.67° C 68% 1006.9 hPa 0 mm 5.36 m/s, 302° 917 W/m² -
1788167864 31.67° C 68% 1007 hPa 0 mm 1.79 m/s, 24° 886 W/m² -
1788167803 31.67° C 68% 1006.9 hPa 0 mm 2.68 m/s, 294° 891 W/m² -
1788167742 31.67° C 68% 1006.9 hPa 0 mm 2.24 m/s, 247° 889 W/m² -
1788167681 31.67° C 68% 1007 hPa 0 mm 2.68 m/s, 65° 892 W/m² -
1788167620 31.67° C 69% 1007.1 hPa 0 mm 1.79 m/s, 299° 943 W/m² -
1788167559 31.67° C 69% 1006.9 hPa 0 mm 3.13 m/s, 279° 1102 W/m² -
1788167498 31.67° C 71% 1007 hPa 0 mm 0.45 m/s, 3° 1105 W/m² -
1788167437 31.67° C 70% 1007.2 hPa 0 mm 1.34 m/s, 238° 362 W/m² -
1788167377 31.67° C 70% 1006.9 hPa 0 mm 1.34 m/s, 272° 299 W/m² -
1788167316 31.67° C 69% 1007.1 hPa 0 mm 1.79 m/s, 306° 577 W/m² -
1788167254 31.67° C 68% 1007.1 hPa 0 mm 1.34 m/s, 56° 1104 W/m² -
1788167193 31.67° C 69% 1007.1 hPa 0 mm 1.34 m/s, 309° 1105 W/m² -
1788167132 31.67° C 68% 1007.1 hPa 0 mm 2.68 m/s, 225° 1102 W/m² -

* Rain latest hour (hover to see other rain measurements)
** Current wind speed in m/s (hover to see current wind gust speed)